PSLV R/B, 40720

Orbit data source: Space-Track

PSLV R/B, 40720 is space debris in SSO originally from a launch on Fri, 10 Jul 2015 UTC launched from the Sirharikota (SRI). Debris objects in space refer to the collection of defunct objects orbiting the Earth. Examples of debris include non-operational satellites, rocket bodies, and fragments generated from explosions, collisions, or faulty payload assembly.

Loading next visibility...
Identifier
40720, 2015-032F
Orbit
SSO
Last TLE update
10 hours ago
Origin
Manufacturer
VSSC/LPSC
Mission
Spacecraft
Bus & Motor
PS-4, Unknown motor
Mass
920 kg wet, 920 kg dry
Launch date (UTC)
2015-07-10 (10 years ago)
Launch vehicle
Unknown
Launch site
Sirharikota (SRI)
Object type
Payload
Rocket body
Debris
Shape & HBR
Cyl + Cyl + 2 Nozzle, 3.238 m
Radar Cross Section
5.812 m², Large (>1 m²)

Expand to show TLE details & history

TLE from 10 hours ago
0 PSLV R/B
1 40720U 15032F   25183.44653540  .00000825  00000-0  10222-3 0  9999
2 40720  98.1426 139.2162 0005394 136.5971 223.5669 14.85479804539350
Epoch: 2025-07-02T10:43Z
TLE epoch observation values (Epoch: 2025-07-02T10:43:00.658Z)
Latitude
Longitude
57.73594°
Altitude
617.835 km
Speed
7.549 km/s
True Right ascension
09h 16m 51s
True Declination
0° 00' 00"
Sunlit
Object was in daylight at epoch
Visualization orbit readout
Latitude
70.31245°
Longitude
34.72783°
Altitude
622.521 km
Speed
7.555 km/s
Apparent Right ascension
21h 07m 48s
Apparent Declination
43° 41' 27"
Sunlit
Object is in daylight
Visualization observer readout
Local Sidereal Time
08:28:25
Azimuth
352.859° N
Elevation
-5.922°
Doppler factor
1
Orbital elements
Apogee altitude
612.894 km
Perigee altitude
605.356 km
Semi-major axis
6,987.262 km
Eccentricity
0.00054
Inclination
98.1426°
RAAN
139.2162°
Arg. of periapsis
136.5971°
True anomaly
Unknown
Mean anomaly
223.5669°
Eccentric anomaly
Unknown
Mean motion
3.71606 °/min
Orbital period
96.88 mins
BSTAR
0.00010222
Loading maneuver chart data...
Loading SW <> Apogee altitude chart data...
Loading historical data...
Loading historical data...
Loading historical data...
Loading historical data...
Loading historical data...
Loading historical data...
Loading historical data...
Other satellites on launch #32 in the year 2015 (2015-07-10 UTC)

PSLV R/B Visibility forecast

Observer location: undefined°, undefined°

Span
Click to sort rows by Start time (UTC) header in descending order
Start Az.
Max El. time (UTC)
Max El. Az.
Max El.
End time (UTC)
End Az.
4 mins2025-07-02 22:10:20.737Z235.128° WSW2025-07-02 22:12:20.737Z266.566° W15.908°2025-07-02 22:14:20.737Z298.088° NW
6 mins2025-07-03 09:56:20.737Z16.97° NNE2025-07-03 09:58:20.737Z49.269° ENE44.33°2025-07-03 10:02:20.737Z190.948° SSW
|